Back to catalog

STARLINK-6372

AliveCommunicationsVLEO
NORAD 57348·PAYLOAD·🇺🇸 United States

Launched Jul 16, 2023 from Cape Canaveral Space Force Station

Loading…

Next Passes (next 24 hours)

TLE

FreshSource: CelesTrak SupGP

Epoch: Sep 14, 2026, 15:04 UTC

1 57348C 23099W   26257.62826389 -.00025752  00000+0 -93274-3 0  2573
2 57348  43.0003 262.1430 0000891 285.4068 304.8465 15.27591869    12

Track STARLINK-6372 in real time with AllMySat

Download on the App Store